DIAMOND RED (42783 NORAD) Tracking and Keplerian Element Data

This shows tracking and keplerian element data for the satellite.

Feedback or suggestion? Click here.




ElementValue
Catalog42783
NameDIAMOND RED
Epoch Orbit9693
Epoch Day82.14719997
Epoch Year2019
RAAN141.6595
Inclination97.3622
Eccentricity0.0012542
Argument of Perigee170.5366
Mean Anonmoly189.6109
Mean Motion15.22006685
Decay Rate1.052E-05
L11 42783U 17036U 19082.14719997 .00001052 00000-0 49013-4 0 9997
L22 42783 97.3622 141.6595 0012542 170.5366 189.6109 15.22006685 96934

Live tracking and technical data element details for DIAMOND RED (NORAD 42783). DIAMOND RED can be tracked NOW for your location showing map with azimuth and elevation plus other details from your city location.

Track the satellite on the map from your city or location and see movement details for azimuth, elevation, latitude, longitude, range, height, and movement on the map or in text.







IsCatalogInMostPopularTable: catalog: 42783, numindb: 323
Update: records affected: 1



GetName: 42783 DIAMOND RED

Hit Count: updated at: Sun, 24 Mar 2019 09:48:13 GMT